WMT409 LATI-LIBP

Flight info

Callsign WMT409
Flight time N/A
Altitude 38000
Route DIRES DCT PAPIZ DCT ENOXA DCT BANAV DCT GARGA DCT RIVAM/N0382F180 M169 ERPOG
Aircraft A320/M-SDE3FGHIRWY/LB1

Departure

Time N/A
Airport Tirana International Airport Mother Teresa (LATI)

Arrival

Time 2026-04-22 12:59
Airport Abruzzo Airport (LIBP)
Time Latitude Longitude Altitude Speed Heading
2026-04-22 12:20 42.14202 17.47096 30055 ft 308 kts 288°
2026-04-22 12:20 42.15420 17.41517 30064 ft 308 kts 288°
2026-04-22 12:21 42.16623 17.36013 30048 ft 308 kts 288°
2026-04-22 12:21 42.17830 17.30460 30056 ft 309 kts 288°
2026-04-22 12:22 42.19031 17.24895 30057 ft 309 kts 288°
2026-04-22 12:22 42.20234 17.19326 30060 ft 309 kts 288°
2026-04-22 12:23 42.21433 17.13765 30067 ft 309 kts 288°
2026-04-22 12:23 42.22635 17.08189 30068 ft 309 kts 288°
2026-04-22 12:24 42.23824 17.02664 30053 ft 309 kts 288°
2026-04-22 12:24 42.25024 16.97086 30058 ft 310 kts 288°
2026-04-22 12:25 42.26217 16.91490 30064 ft 310 kts 288°
2026-04-22 12:25 42.27400 16.85926 30071 ft 310 kts 288°
2026-04-22 12:26 42.28589 16.80336 30074 ft 310 kts 288°
2026-04-22 12:26 42.29774 16.74737 30080 ft 310 kts 288°
2026-04-22 12:27 42.30957 16.69136 30067 ft 310 kts 288°
2026-04-22 12:27 42.32141 16.63534 30071 ft 310 kts 288°
2026-04-22 12:28 42.34396 16.52812 30079 ft 310 kts 288°
2026-04-22 12:29 42.34883 16.50478 30079 ft 310 kts 288°
2026-04-22 12:29 42.36014 16.45033 30087 ft 310 kts 288°
2026-04-22 12:30 42.36992 16.40339 30088 ft 310 kts 288°
2026-04-22 12:31 42.37507 16.37865 30087 ft 310 kts 288°
2026-04-22 12:31 42.38666 16.32280 30068 ft 310 kts 288°
2026-04-22 12:32 42.39830 16.26653 30072 ft 311 kts 288°
2026-04-22 12:32 42.41577 16.18198 30084 ft 311 kts 288°
2026-04-22 12:33 42.42742 16.12552 30091 ft 311 kts 288°
2026-04-22 12:33 42.43900 16.06901 30093 ft 311 kts 288°
2026-04-22 12:34 42.45056 16.01250 30096 ft 311 kts 288°
2026-04-22 12:34 42.46208 15.95603 30003 ft 310 kts 288°
2026-04-22 12:35 42.46770 15.92819 29754 ft 302 kts 288°
2026-04-22 12:35 42.47316 15.90114 29462 ft 294 kts 288°
2026-04-22 12:35 42.47850 15.87474 29149 ft 288 kts 288°
2026-04-22 12:35 42.48375 15.84881 28846 ft 282 kts 288°
2026-04-22 12:36 42.48881 15.82377 28556 ft 277 kts 288°
2026-04-22 12:36 42.49385 15.79888 28265 ft 271 kts 288°
2026-04-22 12:36 42.49798 15.77388 27962 ft 268 kts 281°
2026-04-22 12:36 42.49848 15.74887 27587 ft 270 kts 274°
2026-04-22 12:37 42.49758 15.72355 27220 ft 268 kts 274°
2026-04-22 12:37 42.49669 15.69841 26859 ft 266 kts 274°
2026-04-22 12:37 42.49580 15.67351 26503 ft 264 kts 274°
2026-04-22 12:37 42.49490 15.64863 26145 ft 262 kts 274°
2026-04-22 12:38 42.49400 15.62408 25772 ft 259 kts 274°
2026-04-22 12:38 42.49312 15.59976 25421 ft 257 kts 274°
2026-04-22 12:38 42.49227 15.57566 25063 ft 255 kts 274°
2026-04-22 12:38 42.49142 15.55169 24690 ft 254 kts 274°
2026-04-22 12:39 42.49056 15.52788 24319 ft 253 kts 274°
2026-04-22 12:39 42.48886 15.48038 23552 ft 252 kts 274°
2026-04-22 12:39 42.48800 15.45673 23137 ft 251 kts 274°
2026-04-22 12:40 42.48712 15.43322 22748 ft 249 kts 273°
2026-04-22 12:40 42.48624 15.40982 22369 ft 248 kts 273°
2026-04-22 12:40 42.48536 15.38685 22000 ft 247 kts 273°
2026-04-22 12:40 42.48448 15.36361 21625 ft 246 kts 273°
2026-04-22 12:41 42.48361 15.34043 21257 ft 246 kts 273°
2026-04-22 12:41 42.48275 15.31723 20881 ft 247 kts 272°
2026-04-22 12:41 42.48187 15.29399 20501 ft 247 kts 272°
2026-04-22 12:41 42.48098 15.27066 20110 ft 248 kts 273°
2026-04-22 12:42 42.48009 15.24724 19750 ft 249 kts 273°
2026-04-22 12:42 42.47917 15.22369 19367 ft 251 kts 272°
2026-04-22 12:42 42.47825 15.20003 18995 ft 253 kts 272°
2026-04-22 12:42 42.47735 15.17612 18631 ft 254 kts 272°
2026-04-22 12:43 42.47649 15.15239 18241 ft 256 kts 272°
2026-04-22 12:43 42.47561 15.12827 17837 ft 257 kts 272°
2026-04-22 12:43 42.47470 15.10398 17456 ft 257 kts 272°
2026-04-22 12:43 42.47376 15.07978 17091 ft 257 kts 272°
2026-04-22 12:44 42.47283 15.05562 16721 ft 257 kts 272°
2026-04-22 12:44 42.47191 15.03137 16345 ft 257 kts 271°
2026-04-22 12:44 42.47099 15.00711 15973 ft 258 kts 271°
2026-04-22 12:44 42.47006 14.98311 15608 ft 259 kts 271°
2026-04-22 12:45 42.46912 14.95874 15234 ft 259 kts 271°
2026-04-22 12:45 42.46817 14.93429 14864 ft 260 kts 271°
2026-04-22 12:45 42.46722 14.90969 14490 ft 262 kts 271°
2026-04-22 12:45 42.46627 14.88503 14123 ft 263 kts 270°
2026-04-22 12:46 42.46529 14.86027 13741 ft 264 kts 270°
2026-04-22 12:46 42.46430 14.83569 13352 ft 264 kts 270°
2026-04-22 12:46 42.46328 14.81082 13100 ft 265 kts 270°
2026-04-22 12:46 42.46225 14.78554 12674 ft 273 kts 270°
2026-04-22 12:47 42.46120 14.75978 12220 ft 274 kts 269°
2026-04-22 12:47 42.46012 14.73397 11827 ft 274 kts 270°
2026-04-22 12:47 42.45908 14.70821 11443 ft 275 kts 270°
2026-04-22 12:47 42.45810 14.68229 11042 ft 275 kts 270°
2026-04-22 12:48 42.45715 14.65630 10646 ft 276 kts 270°
2026-04-22 12:48 42.45620 14.63020 10259 ft 278 kts 270°
2026-04-22 12:48 42.45524 14.60432 10114 ft 270 kts 270°
2026-04-22 12:48 42.45475 14.57988 10074 ft 259 kts 277°
2026-04-22 12:49 42.46007 14.55725 9838 ft 250 kts 303°
2026-04-22 12:49 42.47172 14.53995 9300 ft 253 kts 327°
2026-04-22 12:49 42.48780 14.53099 8984 ft 244 kts 344°
2026-04-22 12:49 42.50365 14.52477 8851 ft 231 kts 343°
2026-04-22 12:50 42.51853 14.51869 8711 ft 215 kts 343°
2026-04-22 12:50 42.53231 14.51296 8547 ft 201 kts 343°
2026-04-22 12:50 42.54505 14.50576 8175 ft 198 kts 330°
2026-04-22 12:50 42.55568 14.49409 7745 ft 197 kts 315°
2026-04-22 12:51 42.56425 14.47945 7231 ft 198 kts 310°
2026-04-22 12:51 42.57269 14.46468 6743 ft 197 kts 311°
2026-04-22 12:51 42.58112 14.44997 6302 ft 197 kts 311°
2026-04-22 12:51 42.58931 14.43568 5951 ft 189 kts 311°
2026-04-22 12:52 42.59689 14.42235 5675 ft 164 kts 311°
2026-04-22 12:52 42.60339 14.41087 5401 ft 143 kts 312°
2026-04-22 12:52 42.60901 14.40031 5167 ft 136 kts 303°
2026-04-22 12:52 42.61158 14.38786 4964 ft 140 kts 278°
2026-04-22 12:53 42.60992 14.37462 4723 ft 146 kts 252°
2026-04-22 12:53 42.60398 14.36349 4469 ft 146 kts 225°
2026-04-22 12:53 42.59603 14.35490 4114 ft 146 kts 223°
2026-04-22 12:53 42.58820 14.34635 3839 ft 144 kts 223°
2026-04-22 12:54 42.58297 14.34077 3687 ft 144 kts 222°
2026-04-22 12:54 42.57507 14.33243 3478 ft 143 kts 223°
2026-04-22 12:54 42.56724 14.32423 3278 ft 142 kts 222°
2026-04-22 12:54 42.55939 14.31602 3081 ft 143 kts 221°
2026-04-22 12:55 42.55152 14.30782 2883 ft 142 kts 222°
2026-04-22 12:55 42.54364 14.29962 2689 ft 143 kts 221°
2026-04-22 12:55 42.53576 14.29142 2490 ft 143 kts 222°
2026-04-22 12:55 42.52785 14.28320 2308 ft 142 kts 222°
2026-04-22 12:56 42.51998 14.27501 2109 ft 142 kts 223°
2026-04-22 12:56 42.51222 14.26695 1914 ft 140 kts 225°
2026-04-22 12:56 42.50464 14.25908 1734 ft 138 kts 223°
2026-04-22 12:56 42.49698 14.25112 1538 ft 139 kts 223°
2026-04-22 12:57 42.48930 14.24315 1351 ft 139 kts 223°
2026-04-22 12:57 42.48157 14.23513 1162 ft 139 kts 223°
2026-04-22 12:57 42.47388 14.22714 967 ft 141 kts 223°
2026-04-22 12:57 42.46593 14.21889 767 ft 146 kts 224°
2026-04-22 12:58 42.45790 14.21064 578 ft 142 kts 219°
2026-04-22 12:58 42.45001 14.20269 314 ft 140 kts 219°
2026-04-22 12:58 42.44238 14.19443 134 ft 140 kts 220°
2026-04-22 12:58 42.43503 14.18651 58 ft 125 kts 208°
2026-04-22 12:59 42.42913 14.18072 52 ft 92 kts 221°
2026-04-22 12:59 42.42455 14.17596 49 ft 65 kts 216°
2026-04-22 12:59 42.42310 14.17467 51 ft 8 kts 175°
2026-04-22 12:59 42.42264 14.17561 53 ft 18 kts 82°
2026-04-22 13:00 42.42308 14.17768 51 ft 30 kts 64°
2026-04-22 13:00 42.42473 14.17919 53 ft 21 kts 40°
2026-04-22 13:00 42.42636 14.18083 50 ft 39 kts 38°
2026-04-22 13:00 42.42884 14.18335 48 ft 35 kts 34°
2026-04-22 13:01 42.42998 14.18456 48 ft 14 kts 54°
2026-04-22 13:01 42.43024 14.18579 47 ft 9 kts 80°
2026-04-22 13:01 42.43063 14.18658 47 ft 16 kts 44°
2026-04-22 13:01 42.43021 14.18751 47 ft 0 kts 175°